Flag for Belarus Weather past 2 weeks in Gomel, Belarus

Now
36 °F

Overcast.


Feels Like: 25 °F
Forecast: 26 / 37 °F
Wind: 17 mph from Southwest

Location: Gomel'

Current Time: Feb 1, 2015 at 4:33:00 AM

Latest Report: Feb 1, 2015 at 4:00 AM


Visibility: N/A

Pressure: 29.27 "Hg

Humidity: 93%

Dew point: 34 °F

Location of GomelLocation

Historic Weather in Gomel — Graph

°F

Gomel temperature yesterday

Maximum temperature yesterday: 43 °F (at 4:00 PM)
Minimum temperature yesterday: 36 °F (at 12:00 AM)
Average temperature yesterday: 40 °F

Past Weeks' High & Low Weather Summary

 TemperatureHumidityPressure
High43 °F (Jan 31, 4:00 PM)100% (Jan 17, 6:00 AM)30.30 "Hg (Jan 17, 6:00 AM)
Low19 °F (Jan 25, 8:00 AM)68% (Jan 25, 3:00 PM)28.91 "Hg (Jan 31, 7:30 PM)
Average30 °F93%29.99 "Hg
* Reported Jan 17 3:00 AM — Feb 1 3:00 AM, Gomel, Weather by CustomWeather, © 2014

Note: Actual official high and low records may vary slightly from our data, if they occured in-between our weather recording intervals... More about our weather records

Advertising

Gomel weather history for previous 24 hours

 ConditionsComfort  
Time TempWeatherWind HumidityBarometerVisibility
3:00 AM
Feb 1
36 °FSnow flurries. Overcast.20 mph93%29.24 "Hg2 mi
2:00 AM37 °FSnow flurries. Overcast.20 mph93%29.18 "Hg6 mi
1:00 AM37 °FSprinkles. Overcast.24 mph93%29.12 "HgN/A
12:00 AM37 °FMostly cloudy.17 mph93%29.06 "HgN/A
11:00 PM
Jan 31
37 °FSprinkles. Passing clouds.13 mph93%29.00 "Hg6 mi
10:00 PM39 °FSprinkles. Mostly cloudy.22 mph93%28.97 "Hg6 mi
9:00 PM43 °FSprinkles. Mostly cloudy.22 mph93%28.91 "Hg4 mi
8:30 PM43 °FSprinkles. Mostly cloudy.15 mph93%28.91 "Hg6 mi
8:00 PM41 °FSprinkles. Mostly cloudy.17 mph100%28.91 "Hg6 mi
7:30 PM41 °FSprinkles. Mostly cloudy.22 mph100%28.91 "Hg4 mi
7:00 PM41 °FLight rain. Low clouds.22 mph100%28.94 "Hg4 mi
6:30 PM43 °FLight rain. Fog.22 mph93%28.94 "Hg3 mi
6:00 PM43 °FLight rain. Low clouds.22 mph93%28.97 "Hg4 mi
5:30 PM43 °FLight rain. Fog.20 mph100%28.97 "Hg2 mi
5:00 PM43 °FLight rain. Fog.22 mph100%29.00 "Hg2 mi
4:30 PM43 °FLight rain. Fog.22 mph93%29.00 "Hg2 mi
4:00 PM43 °FLight rain. Fog.20 mph93%29.03 "Hg2 mi
3:30 PM41 °FLight rain. Fog.22 mph100%29.03 "Hg2 mi
3:00 PM41 °FLight rain. Fog.22 mph100%29.06 "Hg2 mi
2:30 PM41 °FLight rain. Fog.20 mph100%29.06 "Hg3 mi
2:00 PM41 °FLight rain. Fog.20 mph100%29.09 "Hg3 mi
1:30 PM41 °FDrizzle. Low clouds.15 mph93%29.09 "Hg4 mi
1:00 PM41 °FDrizzle. Low clouds.20 mph93%29.12 "Hg4 mi
12:30 PM41 °FDrizzle. Low clouds.20 mph93%29.12 "Hg6 mi
12:00 PM41 °FDrizzle. Low clouds.20 mph93%29.12 "Hg6 mi
11:30 AM41 °FLow clouds.20 mph87%29.12 "HgN/A
11:00 AM41 °FLow clouds.20 mph87%29.12 "HgN/A
10:30 AM39 °FOvercast.20 mph93%29.12 "HgN/A
10:00 AM39 °FOvercast.22 mph93%29.12 "HgN/A
9:30 AM39 °FOvercast.20 mph100%29.15 "HgN/A
9:00 AM39 °FDrizzle. Low clouds.20 mph100%29.15 "Hg4 mi
8:30 AM39 °FDrizzle. Fog.17 mph93%29.15 "Hg3 mi
8:00 AM39 °FLow clouds.17 mph93%29.18 "Hg4 mi
7:30 AM37 °FDrizzle. Fog.20 mph100%29.18 "Hg3 mi
7:00 AM37 °FDrizzle. Fog.17 mph100%29.18 "Hg2 mi
6:00 AM37 °FDrizzle. Fog.17 mph100%29.21 "Hg2 mi
5:30 AM37 °FDrizzle. Fog.17 mph93%29.21 "Hg2 mi
5:00 AM37 °FDrizzle. Fog.17 mph93%29.24 "Hg2 mi
4:00 AM37 °FDrizzle. Fog.15 mph93%29.27 "Hg2 mi
Weather by CustomWeather, © 2014

See weather overviewHow to use our weather pages